Regional Weather Roundup
Issued by NWS Sioux Falls, SD

Home | Current Version | Previous Version | Graphics & Text | Print | Product List | Glossary Off
Versions: 1 2 3 4 5 6 7 8 9 10 11 12 13 14 15 16 17 18 19 20 21 22 23 24 25 26 27 28 29 30 31 32 33 34 35 36 37 38 39 40 41 42 43 44 45 46 47 48 49 50

000
ASUS43 KFSD 041402
RWRFSD

WEATHER ROUNDUP FOR SE SOUTH DAKOTA/SW MINNESOTA/NW IOWA
NATIONAL WEATHER SERVICE SIOUX FALLS SD
900 AM CDT TUE AUG 04 2015

NOTE: "FAIR" INDICATES FEW OR NO CLOUDS BELOW 12,000 FEET WITH NO
SIGNIFICANT WEATHER AND OR OBSTRUCTIONS TO VISIBILITY.


SDZ038>040-050-052>070-041500-
SOUTHEAST SOUTH DAKOTA

CITY           SKY/WX    TMP DP  RH WIND       PRES   REMARKS
BROOKINGS      CLOUDY    63  54  72 SE5       30.06S
CHAMBERLAIN    CLOUDY    64  63  94 E7        29.95F
HURON          CLOUDY    63  57  81 SE10      29.99F
MADISON        FAIR      63  59  88 SE6       30.05R
MITCHELL       CLOUDY    66  62  87 E6        30.01S
SIOUX FALLS    CLOUDY    66  59  78 E3        30.05R
WINNER         FAIR      67  62  84 MISG      29.93F
YANKTON        CLOUDY    66  63  88 SE3       30.02R
$$

MNZ071-072-080-081-089-090-097-098-041500-
SOUTHWEST MINNESOTA

CITY           SKY/WX    TMP DP  RH WIND       PRES   REMARKS
FAIRMONT       PTSUNNY   64  55  72 CALM      30.05R
JACKSON        CLOUDY    68  55  64 CALM      30.06S
LUVERNE        CLOUDY    61  57  88 CALM      30.07R
MARSHALL       PTSUNNY   68  54  60 SW7       30.05S
MONTEVIDEO     PTSUNNY   68  61  77 CALM      30.04F
PIPESTONE      CLOUDY    64  55  72 CALM      30.06R
REDWOOD FALLS  PTSUNNY   68  53  58 SW7       30.03F
WINDOM         PTSUNNY   64  57  77 CALM      30.05S
WORTHINGTON    CLOUDY    64  55  72 SE3       30.06S
$$

IAZ001>003-012>014-020>022-031-032-NEZ013-014-SDZ071-041500-
NORTHWEST IOWA

CITY           SKY/WX    TMP DP  RH WIND       PRES   REMARKS
DENISON        CLOUDY    66  63  88 CALM      30.04R
ESTHERVILLE    CLOUDY    63  57  81 CALM      30.06R
SIOUX CITY     CLOUDY    68  61  78 E6        30.03S THUNDER
SPENCER        CLOUDY    65  56  72 CALM      30.06S
STORM LAKE     CLOUDY    66  61  82 S5        30.07R
$$

ABBREVIATIONS USED IN REMARKS
   TC - TEMPERATURE IN CELSIUS
  WCI - WIND CHILL INDEX
   HX - HEAT INDEX
  VSB - VISIBILITY




USA.gov is the U.S. government's official web portal to all federal, state and local government web resources and services.